Newberry, MI

8:23 PM EST on February 05, 2016 (GMT -0500)
Luce County

Weather History for KERY - October, 2013

Change the Weather History Date:

Wednesday, October 30, 2013

  Actual Average Record
Temperature  
Mean Temperature 38 °F -  
Max Temperature 44 °F 49 °F 74 °F (1950)
Min Temperature 32 °F 32 °F 12 °F (1925)
Degree Days  
Heating Degree Days 27    
Moisture  
Dew Point 37 °F    
Average Humidity 94    
Maximum Humidity 100    
Minimum Humidity 86    
Precipitation  
Precipitation 0.00 in - - ()
Sea Level Pressure  
Sea Level Pressure 30.07 in    
Wind  
Wind Speed 2 mph (SE)    
Max Wind Speed 7 mph    
Max Gust Speed -    
Visibility 9 miles    
Events Rain    
Averages and records for this station are not official NWS values.
T = Trace of Precipitation, MM = Missing Value Source: NWS Daily Summary

Daily Weather History Graph

Daily Weather History Graph

Search for Another Location

Airport or City:

Trip Planner

Search our weather history database for the weather conditions in past years. The results will help you decide how hot, cold, wet, or windy it might be!

Date:

Astronomy

Oct. 30, 2013 Rise Set
Actual Time 8:20 AM EDT 6:29 PM EDT
Civil Twilight 7:49 AM EDT 7:01 PM EDT
Nautical Twilight 7:13 AM EDT 7:36 PM EDT
Astronomical Twilight 6:38 AM EDT 8:11 PM EDT
Moon 3:55 AM EDT (10/30) 4:26 PM EDT (10/30)
Length of Visible Light 11h 11m
Length of Day
10h 09m
Waning Crescent, 17% of the Moon is Illuminated
Oct 30
Waning Crescent
Nov 3
New
Nov 10
First Quarter
Nov 17
Full
Nov 25
Last Quarter

Hourly Weather History & Observations

Time (EDT) Temp. Windchill Dew Point Humidity Pressure Visibility Wind Dir Wind Speed Gust Speed Precip Events Conditions
12:13 AM 32.0 °F - 32.0 °F 100% 30.20 in 10.0 mi Calm Calm - N/A   Overcast
12:35 AM 32.0 °F - 32.0 °F 100% 30.20 in 10.0 mi Calm Calm - N/A   Overcast
12:55 AM 32.2 °F - 32.0 °F 99% 30.19 in 7.0 mi Calm Calm - N/A   Overcast
1:14 AM 32.4 °F - 32.2 °F 99% 30.19 in 7.0 mi Calm Calm - N/A Rain Rain
1:35 AM 32.5 °F - 32.2 °F 99% 30.19 in 7.0 mi Calm Calm - N/A Rain Light Rain
1:55 AM 32.2 °F - 32.0 °F 99% 30.19 in 5.0 mi Calm Calm - N/A Rain Light Rain
2:15 AM 32.0 °F - 32.0 °F 100% 30.19 in 5.0 mi Calm Calm - N/A Rain Light Rain
2:35 AM 32.4 °F - 32.2 °F 99% 30.19 in 7.0 mi Calm Calm - N/A Rain Light Rain
2:54 AM 32.2 °F - 32.0 °F 99% 30.18 in 7.0 mi Calm Calm - N/A   Overcast
3:15 AM 32.4 °F - 32.2 °F 99% 30.17 in 10.0 mi Calm Calm - N/A   Overcast
3:35 AM 32.4 °F - 32.2 °F 99% 30.17 in 7.0 mi Calm Calm - N/A Rain Light Rain
3:54 AM 32.2 °F - 32.0 °F 99% 30.17 in 10.0 mi Calm Calm - N/A Rain Light Rain
4:15 AM 32.2 °F - 32.0 °F 99% 30.16 in 5.0 mi Calm Calm - N/A Rain Light Rain
4:35 AM 32.2 °F 28.9 °F 32.2 °F 100% 30.16 in 7.0 mi ENE 3.5 mph - N/A   Overcast
4:54 AM 32.4 °F - 32.4 °F 100% 30.16 in 7.0 mi Calm Calm - N/A   Overcast
5:15 AM 32.9 °F - 32.5 °F 99% 30.15 in 10.0 mi Calm Calm - N/A   Overcast
5:35 AM 32.9 °F 29.8 °F 32.5 °F 99% 30.15 in 10.0 mi ESE 3.5 mph - N/A   Overcast
5:54 AM 32.9 °F 28.5 °F 32.9 °F 100% 30.15 in 10.0 mi ESE 4.6 mph - N/A   Overcast
6:15 AM 33.1 °F 30.0 °F 32.9 °F 99% 30.15 in 10.0 mi East 3.5 mph - N/A   Overcast
6:35 AM 33.1 °F - 32.9 °F 99% 30.15 in 10.0 mi Calm Calm - N/A   Overcast
6:55 AM 33.4 °F - 33.1 °F 99% 30.15 in 10.0 mi Calm Calm - N/A   Overcast
7:15 AM 33.8 °F - 33.3 °F 98% 30.14 in 10.0 mi Calm Calm - N/A   Overcast
7:34 AM 34.0 °F - 33.8 °F 99% 30.14 in 10.0 mi Calm Calm - N/A   Overcast
7:55 AM 33.8 °F - 33.4 °F 99% 30.14 in 7.0 mi Calm Calm - N/A   Overcast
8:15 AM 33.8 °F - 33.4 °F 99% 30.13 in 5.0 mi Calm Calm - N/A   Overcast
8:34 AM 33.8 °F - 33.8 °F 100% 30.14 in 7.0 mi Calm Calm - N/A   Overcast
8:55 AM 34.3 °F - 34.2 °F 99% 30.14 in 7.0 mi Calm Calm - N/A   Overcast
9:15 AM 34.7 °F - 34.3 °F 99% 30.14 in 5.0 mi Calm Calm - N/A   Overcast
9:34 AM 34.9 °F - 34.7 °F 99% 30.14 in 5.0 mi Calm Calm - N/A   Overcast
9:55 AM 35.6 °F 32.8 °F 35.1 °F 98% 30.14 in 5.0 mi ESE 3.5 mph - N/A   Overcast
10:15 AM 36.5 °F 32.7 °F 36.0 °F 98% 30.14 in 5.0 mi SE 4.6 mph - N/A   Overcast
10:34 AM 37.2 °F 33.6 °F 36.7 °F 98% 30.13 in 7.0 mi SE 4.6 mph - N/A   Overcast
10:55 AM 37.9 °F 35.5 °F 37.0 °F 97% 30.12 in 7.0 mi SE 3.5 mph - N/A   Overcast
11:15 AM 38.7 °F 36.3 °F 37.4 °F 95% 30.12 in 10.0 mi SE 3.5 mph - N/A   Overcast
11:34 AM 39.6 °F 36.3 °F 38.1 °F 95% 30.12 in 10.0 mi SSE 4.6 mph - N/A   Overcast
11:55 AM 40.5 °F 35.8 °F 38.8 °F 94% 30.11 in 10.0 mi SE 6.9 mph - N/A   Overcast
12:15 PM 41.2 °F 37.3 °F 39.2 °F 93% 30.11 in 10.0 mi SE 5.8 mph - N/A   Overcast
12:34 PM 41.4 °F 38.4 °F 39.4 °F 93% 30.11 in 10.0 mi SE 4.6 mph - N/A   Overcast
12:55 PM 41.7 °F 38.8 °F 39.9 °F 93% 30.10 in 10.0 mi SE 4.6 mph - N/A   Overcast
1:15 PM 42.1 °F 38.4 °F 40.1 °F 93% 30.09 in 10.0 mi SSE 5.8 mph - N/A   Overcast
1:34 PM 42.8 °F 39.3 °F 40.6 °F 92% 30.09 in 10.0 mi SSE 5.8 mph - N/A   Overcast
1:55 PM 43.0 °F 39.5 °F 39.7 °F 88% 30.08 in 10.0 mi SSE 5.8 mph - N/A   Overcast
2:14 PM 42.8 °F 38.6 °F 38.8 °F 86% 30.07 in 10.0 mi SSE 6.9 mph - N/A   Overcast
2:35 PM 43.0 °F 38.8 °F 39.4 °F 87% 30.06 in 10.0 mi SSE 6.9 mph - N/A   Overcast
2:55 PM 43.2 °F 39.0 °F 39.2 °F 86% 30.05 in 10.0 mi SE 6.9 mph - N/A   Overcast
3:15 PM 43.7 °F 39.7 °F 39.7 °F 86% 30.05 in 10.0 mi SSE 6.9 mph - N/A   Overcast
3:35 PM 43.9 °F 40.5 °F 40.3 °F 87% 30.05 in 10.0 mi SSE 5.8 mph - N/A   Overcast
3:55 PM 44.1 °F 42.5 °F 40.5 °F 87% 30.04 in 10.0 mi SE 3.5 mph - N/A   Overcast
4:14 PM 44.6 °F 41.4 °F 40.8 °F 87% 30.03 in 10.0 mi SE 5.8 mph - N/A   Overcast
4:35 PM 44.6 °F 43.1 °F 41.2 °F 88% 30.01 in 10.0 mi SE 3.5 mph - N/A   Overcast
4:55 PM 44.6 °F 41.4 °F 41.0 °F 87% 30.00 in 10.0 mi ESE 5.8 mph - N/A   Overcast
5:14 PM 44.6 °F 41.4 °F 40.8 °F 87% 29.99 in 10.0 mi SE 5.8 mph - N/A   Overcast
5:35 PM 44.6 °F 43.1 °F 40.6 °F 86% 29.99 in 10.0 mi SE 3.5 mph - N/A   Overcast
5:54 PM 44.6 °F 42.2 °F 40.6 °F 86% 29.98 in 10.0 mi SSE 4.6 mph - N/A   Overcast
6:15 PM 44.4 °F 42.9 °F 40.6 °F 87% 29.97 in 10.0 mi SE 3.5 mph - N/A   Overcast
6:35 PM 43.7 °F 42.1 °F 40.3 °F 88% 29.96 in 10.0 mi SE 3.5 mph - N/A   Overcast
6:54 PM 42.8 °F - 40.3 °F 91% 29.96 in 10.0 mi Calm Calm - N/A   Overcast
7:15 PM 41.4 °F 39.4 °F 39.9 °F 95% 29.95 in 10.0 mi East 3.5 mph - N/A   Scattered Clouds
7:35 PM 41.0 °F 37.1 °F 39.7 °F 95% 29.94 in 10.0 mi SE 5.8 mph - N/A   Scattered Clouds
7:54 PM 41.4 °F 37.6 °F 39.6 °F 93% 29.93 in 10.0 mi ESE 5.8 mph - N/A   Scattered Clouds
8:15 PM 41.2 °F 36.6 °F 39.4 °F 93% 29.92 in 10.0 mi SE 6.9 mph - N/A   Scattered Clouds
8:35 PM 41.0 °F 38.0 °F 39.4 °F 94% 29.93 in 10.0 mi SSE 4.6 mph - N/A   Overcast
8:54 PM 41.2 °F 39.2 °F 39.6 °F 94% 29.93 in 10.0 mi ESE 3.5 mph - N/A   Overcast
9:15 PM 41.2 °F 39.2 °F 39.6 °F 94% 29.91 in 10.0 mi SSE 3.5 mph - N/A   Overcast
9:35 PM 41.4 °F 39.4 °F 39.7 °F 94% 29.90 in 10.0 mi SE 3.5 mph - N/A   Overcast
9:55 PM 41.5 °F 39.6 °F 39.6 °F 93% 29.89 in 10.0 mi ESE 3.5 mph - N/A   Overcast
10:15 PM 41.7 °F 39.8 °F 39.9 °F 93% 29.87 in 10.0 mi SE 3.5 mph - N/A   Overcast
10:35 PM 42.4 °F 40.7 °F 40.3 °F 92% 29.86 in 10.0 mi SE 3.5 mph - N/A   Overcast
10:55 PM 42.8 °F - 40.6 °F 92% 29.86 in 10.0 mi Calm Calm - N/A   Overcast
11:15 PM 43.3 °F 41.7 °F 41.0 °F 91% 29.86 in 10.0 mi SE 3.5 mph - N/A   Overcast
11:35 PM 44.2 °F 41.8 °F 41.0 °F 88% 29.84 in 10.0 mi SE 4.6 mph - N/A   Overcast
11:55 PM 44.6 °F 41.4 °F 41.5 °F 89% 29.83 in 10.0 mi SE 5.8 mph - N/A   Overcast